This demonstration page uses our WeatherBlox Daily Observations layout. Learn more.

Left ArrowRight Arrow

Hourly Observations for April 19, 2020

Temp ( °F °C ) Dew Point ( °F °C ) Humidity (%) Winds ( mph kmh ) Pressure ( in mb ) Visibility ( mi km ) Precip ( " mm )
12:15 am 00:15 Clear 50 9.8 33 0.7 53 53 NNE 12 19 29.78 1009 10 16.0934 0 0
12:35 am 00:35 Clear 49 9.7 34 1 55 55 NNE 14 22 29.8 1009 10 16.0934 0 0
12:55 am 00:55 Clear 47 8.6 34 1 59 59 NNE 14 22 29.81 1009 10 16.0934 0 0
1:15 am 01:15 Clear 47 8.4 34 1.1 60 60 NNE 16 26 29.81 1009 10 16.0934 0 0
1:35 am 01:35 Clear 47 8.3 34 1.2 61 61 NNE 15 24 29.82 1010 10 16.0934 0 0
1:55 am 01:55 Clear 47 8.3 35 1.6 63 63 NNE 15 24 29.81 1009 10 16.0934 0 0
2:15 am 02:15 Clear 47 8.1 35 1.7 64 64 NNE 14 22 29.81 1009 10 16.0934 0 0
2:35 am 02:35 Clear 47 8.3 35 1.8 64 64 NNE 15 24 29.81 1009 10 16.0934 0 0
2:55 am 02:55 Clear 47 8.1 36 2 66 66 NNE 12 19 29.81 1009 10 16.0934 0 0
3:15 am 03:15 Clear 46 8 36 2 66 66 NE 10 17 29.81 1009 10 16.0934 0 0
3:35 am 03:35 Clear 47 8.1 36 2.2 67 67 NE 13 20 29.81 1009 10 16.0934 0 0
3:55 am 03:55 Clear 45 7.2 36 2.1 70 70 NE 13 20 29.83 1010 10 16.0934 0 0
4:15 am 04:15 Clear 45 7.2 36 2.4 72 72 NNE 14 22 29.84 1010 10 16.0934 0 0
4:35 am 04:35 Clear 45 7.1 36 2.2 71 71 NNE 14 22 29.85 1011 10 16.0934 0 0
4:55 am 04:55 Clear 41 4.9 34 1.3 78 78 NNE 10 17 29.87 1011 10 16.0934 0 0
5:15 am 05:15 Clear 41 4.8 35 1.5 79 79 NNE 8 13 29.88 1012 10 16.0934 0 0
5:35 am 05:35 Clear 39 3.8 34 0.9 82 82 N 8 13 29.9 1012 10 16.0934 0 0
5:55 am 05:55 Clear 38 3.1 33 0.7 84 84 NNE 7 11 29.92 1013 10 16.0934 0 0
6:15 am 06:15 Clear 37 2.6 33 0.5 86 86 NNE 7 11 29.92 1013 10 16.0934 0 0
6:35 am 06:35 Clear 38 3.2 34 1.1 86 86 NNE 9 15 29.91 1013 10 16.0934 0 0
6:55 am 06:55 Sunny 36 2.2 32 0.2 87 87 N 7 11 29.93 1014 10 16.0934 0 0
7:15 am 07:15 Sunny 36 2.3 33 0.6 89 89 NNE 8 13 29.94 1014 10 16.0934 0 0
7:35 am 07:35 Sunny 38 3.5 35 1.6 88 88 NNE 8 13 29.94 1014 10 16.0934 0 0
7:55 am 07:55 Sunny 41 5 36 2.3 83 83 NNE 9 15 29.94 1014 10 16.0934 0 0
8:15 am 08:15 Sunny 43 6.3 37 3 80 80 NNE 12 19 29.94 1014 10 16.0934 0 0
8:35 am 08:35 Sunny 45 7.4 38 3.2 75 75 NNE 12 19 29.93 1013 10 16.0934 0 0
8:55 am 08:55 Sunny 49 9.7 37 2.7 62 62 ENE 14 22 29.91 1013 10 16.0934 0 0
9:15 am 09:15 Sunny 51 10.7 35 1.5 53 53 ENE 16 26 29.91 1013 10 16.0934 0 0
9:35 am 09:35 Sunny 53 11.5 34 1.1 49 49 ENE 17 28 29.9 1013 10 16.0934 0 0
9:55 am 09:55 Sunny 55 12.5 34 1.1 46 46 E 20 31 29.9 1013 10 16.0934 0 0
10:15 am 10:15 Sunny 55 13 34 1 44 44 ENE 16 26 29.9 1012 10 16.0934 0 0
10:35 am 10:35 Sunny 56 13.5 32 -0.2 39 39 ENE 17 28 29.9 1013 10 16.0934 0 0
10:55 am 10:55 Sunny 57 14.1 32 0.1 39 39 ENE 18 30 29.9 1012 10 16.0934 0 0
11:15 am 11:15 Sunny 58 14.4 32 0.1 38 38 ENE 14 22 29.89 1012 10 16.0934 0 0
11:35 am 11:35 Sunny 58 14.6 33 0.5 38 38 ENE 14 22 29.89 1012 10 16.0934 0 0
11:55 am 11:55 Sunny 59 15.1 34 0.9 38 38 ENE 10 17 29.89 1012 10 16.0934 0 0
12:15 pm 12:15 Sunny 60 15.4 34 0.9 38 38 E 9 15 29.89 1012 10 16.0934 0 0
12:35 pm 12:35 Sunny 60 15.6 32 0.2 35 35 ENE 12 19 29.87 1012 10 16.0934 0 0
12:55 pm 12:55 Sunny 60 15.8 33 0.5 36 36 ENE 13 20 29.86 1011 10 16.0934 0 0
1:15 pm 13:15 Sunny 61 16 32 0.2 34 34 E 14 22 29.85 1011 10 16.0934 0 0
1:35 pm 13:35 Sunny 62 16.9 33 0.8 34 34 ENE 15 24 29.83 1010 10 16.0934 0 0
1:55 pm 13:55 Sunny 61 16.3 32 0 33 33 NE 10 17 29.83 1010 10 16.0934 0 0
2:15 pm 14:15 Sunny 62 16.8 32 0.2 33 33 E 7 11 29.81 1010 10 16.0934 0 0
2:35 pm 14:35 Sunny 62 16.7 32 0 32 32 E 10 17 29.81 1009 10 16.0934 0 0
2:55 pm 14:55 Sunny 63 17.3 32 0 31 31 ENE 5 7 29.8 1009 10 16.0934 0 0
3:15 pm 15:15 Sunny 63 17.3 32 -0.1 31 31 NE 7 11 29.8 1009 10 16.0934 0 0
3:35 pm 15:35 Sunny 64 17.6 33 0.3 31 31 E 7 11 29.79 1009 10 16.0934 0 0
3:55 pm 15:55 Sunny 64 17.7 32 0.1 31 31 NE 9 15 29.79 1009 10 16.0934 0 0
4:15 pm 16:15 Sunny 65 18.2 32 0.2 30 30 E 7 11 29.78 1009 10 16.0934 0 0
4:35 pm 16:35 Sunny 64 17.9 32 0.1 30 30 NNW 6 9 29.78 1008 10 16.0934 0 0
4:55 pm 16:55 Partly Cloudy 64 17.7 32 -0.1 30 30 E 5 7 29.78 1008 10 16.0934 0 0
5:15 pm 17:15 Partly Cloudy 65 18.1 32 0.2 30 30 ENE 9 15 29.77 1008 10 16.0934 0 0
5:35 pm 17:35 Sunny 65 18.1 32 0 30 30 Calm 29.76 1008 10 16.0934 0 0
5:55 pm 17:55 Partly Cloudy 63 17 32 -0.1 32 32 E 6 9 29.77 1008 10 16.0934 0 0
6:15 pm 18:15 Sunny 62 16.5 32 -0.2 32 32 NNE 7 11 29.78 1008 10 16.0934 0 0
6:35 pm 18:35 Partly Cloudy 62 16.6 32 0.1 33 33 NE 9 15 29.78 1008 10 16.0934 0 0
6:55 pm 18:55 Mostly Cloudy 63 17 33 0.5 33 33 ENE 14 22 29.77 1008 10 16.0934 0 0
7:15 pm 19:15 Mostly Cloudy 62 16.5 32 0.2 33 33 E 12 19 29.77 1008 10 16.0934 0 0
7:35 pm 19:35 Partly Cloudy 61 15.9 33 0.3 35 35 E 12 19 29.77 1008 10 16.0934 0 0
7:55 pm 19:55 Sunny 59 15.1 32 0.2 36 36 E 12 19 29.77 1008 10 16.0934 0 0
8:15 pm 20:15 Sunny 57 13.9 33 0.3 40 40 E 8 13 29.79 1009 10 16.0934 0 0
8:35 pm 20:35 Clear 55 12.7 32 0.2 43 43 E 9 15 29.8 1009 10 16.0934 0 0
8:55 pm 20:55 Clear 52 11.3 33 0.3 47 47 E 9 15 29.81 1010 10 16.0934 0 0
9:15 pm 21:15 Clear 52 11 32 0.2 48 48 E 9 15 29.81 1010 10 16.0934 0 0
9:35 pm 21:35 Clear 52 11.1 32 0.2 47 47 E 10 17 29.82 1010 10 16.0934 0 0
9:55 pm 21:55 Partly Cloudy 52 11.2 33 0.6 48 48 E 10 17 29.83 1010 10 16.0934 0 0
10:15 pm 22:15 Cloudy 53 11.4 33 0.5 47 47 ENE 10 17 29.85 1011 10 16.0934 0 0
10:35 pm 22:35 Cloudy with Rain 51 10.4 35 1.4 54 54 NNE 9 15 29.9 1013 10 16.0934 0 0
10:55 pm 22:55 Cloudy with Heavy Rain 50 10 39 4 67 67 NNW 6 9 29.93 1014 10 16.0934 0.03 0.762
11:15 pm 23:15 Cloudy with Light Rain 50 9.9 41 5.1 72 72 SSW 5 7 29.92 1013 10 16.0934 0.01 0.254
11:35 pm 23:35 Cloudy 50 10 41 5.1 72 72 Calm 29.91 1013 10 16.0934 0.02 0.508
11:55 pm 23:55 Cloudy 48 9 42 5.8 81 81 NE 5 7 29.92 1013 10 16.0934 0.02 0.508

Powered by AerisWeather